Wind_Speed
12 12 15 9 8 4 8 5 13 4 11 13 8 1 6 21 20 18 26 25 20 19 19 9 15 10 10 10 12 14 16 9 8 11 14 10 9 10 12 13 13 14 13 11
15 15 14 2 8 8 13 10 7 6 6 13 7 13 14 3 13 21 21 26 23 19 15 22 19 11 11 11 10 8 10 12 12 10 15 13 9 10 12 13 14 13 13 12
17 12 10 11 9 10 9 6 1 5 10 7 6 4 8 9 10 15 22 19 21 31 28 17 22 14 12 12 6 10 10 11 11 11 17 7 13 9 13 13 13 14 13 13
16 14 7 13 13 11 14 3 3 7 9 8 10 6 15 12 19 17 26 29 23 21 26 25 29 14 21 10 8 10 12 11 10 10 11 12 10 10 11 11 14 13 14 13
15 13 16 12 12 12 7 4 9 6 11 10 13 11 10 9 17 22 19 24 24 22 22 15 23 27 15 14 12 11 11 12 10 11 10 12 14 12 14 11 15 13 17 12
17 8 11 14 11 12 12 6 7 10 14 16 12 6 6 16 12 31 20 19 12 23 21 16 19 22 35 18 19 9 10 10 12 12 11 11 12 8 12 15 14 14 16 14
13 13 12 13 13 9 12 14 2 6 6 9 8 7 7 5 7 10 20 16 11 7 22 24 27 17 14 17 12 13 10 10 11 11 13 13 12 12 11 14 13 11 13 15
17 17 14 14 17 10 12 16 12 3 6 7 17 5 10 8 8 5 9 11 15 14 17 18 12 9 17 7 18 17 8 12 11 11 13 14 14 13 11 12 16 12 17 11
17 15 16 13 14 13 7 13 11 18 22 16 17 9 11 7 7 4 5 10 7 13 8 12 15 21 14 21 23 20 14 15 14 13 14 14 15 14 11 13 15 15 13 18
17 12 12 15 12 13 14 11 11 13 4 1 6 5 12 9 6 3 6 11 11 13 13 10 12 17 21 21 21 23 16 16 14 15 15 15 14 15 14 13 13 18 19 22
15 9 11 14 15 16 12 14 13 15 5 7 4 4 8 10 6 5 1 10 19 7 10 11 12 19 24 24 18 23 26 22 18 17 17 14 14 14 15 15 14 16 18 19
19 16 17 18 15 13 19 14 10 12 7 11 20 13 11 11 9 10 11 9 9 9 5 10 18 19 25 24 27 30 33 28 17 19 17 19 16 14 13 13 16 17 18 15
16 23 17 11 15 17 13 14 13 12 10 9 14 14 8 10 11 9 11 6 5 4 5 6 5 5 13 21 28 20 21 32 20 20 19 19 17 14 13 12 13 14 17 17
15 21 20 11 7 8 16 14 16 17 16 9 10 9 16 13 14 12 9 6 6 6 4 3 5 3 5 9 13 22 39 17 30 17 24 21 17 15 13 11 11 11 12 14
16 22 20 13 11 18 6 11 8 10 14 15 4 10 7 13 10 13 11 10 9 6 6 4 6 5 8 9 12 14 24 40 25 32 32 27 16 17 16 15 13 12 14 14
20 25 21 19 11 11 15 11 10 11 13 14 11 2 13 13 15 13 11 9 8 8 8 8 7 8 9 10 12 12 13 28 38 42 34 34 21 17 19 19 18 18 20 20
24 23 22 25 19 18 28 15 14 14 12 10 10 6 9 9 10 9 15 10 10 11 10 9 10 10 10 12 15 15 13 12 29 35 35 25 17 22 22 22 22 20 19 18
27 27 27 24 19 9 16 10 7 2 6 9 11 8 5 6 8 7 10 10 11 15 11 11 7 11 10 16 17 18 16 16 15 20 29 24 25 23 23 21 20 21 23 24
22 23 28 26 21 18 16 14 11 13 13 12 13 12 7 7 7 7 7 9 12 14 16 11 12 13 14 17 22 23 20 19 19 15 15 28 27 22 24 23 23 21 23 24
16 16 23 17 18 15 17 9 16 10 12 12 13 11 11 10 9 12 14 11 10 9 8 9 13 20 22 22 24 25 24 22 22 23 20 18 31 29 28 27 27 26 25 26
26 26 24 26 19 19 13 12 9 9 4 4 11 10 11 8 11 18 14 11 10 8 11 14 21 21 22 24 26 26 24 23 23 24 25 24 26 26 27 30 31 31 30 31
36 30 25 19 32 16 9 11 15 7 5 7 7 8 14 15 11 11 6 6 6 9 12 17 19 21 22 20 25 27 24 19 19 20 20 22 25 28 26 26 30 35 36 36
31 26 27 31 21 23 23 12 17 11 7 6 9 12 10 11 10 9 8 10 8 11 15 18 16 17 24 24 24 22 21 15 16 18 19 21 24 26 26 24 25 30 34 36
26 33 35 25 25 15 14 14 16 13 13 10 11 12 14 10 8 10 10 8 11 16 19 20 18 17 17 23 22 20 12 16 17 18 18 20 22 24 25 24 24 25 28 32
17 26 39 46 33 18 4 21 18 13 15 10 9 12 12 12 12 13 14 14 16 19 23 23 21 20 20 22 25 20 15 17 19 19 18 20 22 24 23 24 22 21 19 20
19 22 29 50 30 33 31 19 15 16 15 14 12 12 15 11 13 16 17 19 19 21 23 21 21 19 20 20 20 17 19 17 18 20 20 20 22 23 22 22 20 20 19 21
Wind_Direction
218 223 241 97 54 23 63 297 250 109 157 206 228 198 85 182 194 191 183 185 199 195 181 219 191 202 226 256 194 201 205 183 178 168 169 172 178 171 165 182 165 173 171 170
212 232 242 269 201 229 248 200 180 143 167 222 224 203 185 164 214 200 205 188 197 205 193 199 183 220 236 248 194 177 206 183 182 182 171 153 203 181 184 175 183 189 183 183
224 232 235 250 242 248 247 230 199 201 211 255 277 138 48 193 229 212 202 221 206 212 200 188 172 186 235 255 211 178 180 178 187 193 192 163 165 188 197 182 187 196 197 191
232 236 240 254 250 231 254 261 209 227 175 233 238 233 222 233 213 238 210 209 220 212 229 185 179 207 215 252 219 204 198 203 203 197 193 183 191 187 189 202 199 206 206 202
232 236 244 244 237 230 265 238 247 244 238 237 252 241 243 216 189 219 222 215 218 221 227 211 200 176 212 256 221 222 205 206 207 211 205 186 198 175 169 194 202 211 211 209
235 260 230 228 223 227 242 274 250 251 253 239 253 265 131 184 199 238 213 216 219 211 225 230 234 235 171 191 245 192 207 201 200 208 207 209 227 169 199 197 205 211 214 207
223 238 226 213 219 231 226 240 90 317 276 314 283 257 143 143 72 114 176 214 226 273 196 228 220 191 265 209 185 259 219 206 201 203 213 219 222 222 199 182 185 201 202 209
203 193 205 205 210 192 224 251 129 233 227 286 278 125 117 121 115 122 156 194 205 181 179 204 225 209 243 232 196 266 213 212 210 204 207 214 223 222 219 202 193 186 194 219
253 242 182 208 211 221 303 239 242 214 240 209 190 101 127 134 132 106 156 184 213 182 214 215 193 222 247 248 203 248 233 207 211 204 204 207 218 226 226 222 204 218 202 225
253 142 195 207 208 231 246 283 278 244 283 97 62 16 139 151 139 165 207 189 164 179 214 186 206 209 247 252 218 243 232 201 207 214 207 204 207 221 224 231 226 219 227 235
241 259 209 224 211 228 223 244 255 268 320 219 32 262 156 150 149 166 197 348 119 139 190 212 239 211 231 254 261 227 262 241 218 220 212 204 204 215 226 227 230 241 251 254
230 247 189 222 227 230 229 243 239 240 278 260 175 160 141 152 160 143 139 137 138 131 158 191 210 217 227 241 244 257 232 222 230 229 209 219 207 210 220 232 234 239 252 265
220 237 256 242 224 205 233 238 251 262 250 289 283 142 166 165 161 168 164 172 111 123 181 160 254 225 227 227 231 246 251 268 227 244 222 236 219 212 214 221 235 244 253 264
221 228 234 229 360 243 224 233 234 255 267 173 48 180 179 178 172 163 152 153 137 161 156 204 210 281 297 259 270 237 246 251 265 246 231 234 227 225 221 228 224 238 252 252
225 233 250 217 224 250 219 196 208 238 270 292 30 168 185 192 200 178 171 170 161 184 205 207 250 300 309 294 295 303 235 232 231 238 220 229 225 242 242 233 231 233 243 252
220 234 248 259 227 245 233 242 251 252 264 266 268 235 154 160 154 176 181 191 182 185 204 199 247 290 307 308 308 303 290 238 227 237 231 210 236 229 242 240 240 249 259 267
213 228 235 248 238 216 246 235 243 250 248 250 252 175 178 189 197 199 208 200 198 201 205 225 268 283 299 301 307 314 305 293 241 258 260 243 221 248 247 245 255 254 257 264
214 219 241 247 250 233 260 236 216 321 227 230 239 239 241 207 213 191 203 197 192 202 196 205 205 262 314 307 306 311 307 295 295 253 253 250 239 248 257 256 256 261 265 259
244 218 228 240 243 248 257 230 218 222 244 246 245 242 246 209 215 205 197 202 191 200 223 234 245 272 282 285 291 298 292 286 292 292 284 242 235 255 260 257 259 261 264 263
233 229 253 232 224 254 246 265 228 200 231 234 226 220 216 213 222 219 185 176 177 195 229 259 277 292 290 286 281 280 284 277 271 270 271 273 229 255 251 249 252 250 253 258
244 250 217 244 230 241 234 235 195 201 134 132 196 203 213 204 193 177 192 195 202 228 274 287 291 291 287 284 284 282 278 277 273 262 260 261 257 255 255 252 250 250 251 254
232 244 227 230 250 223 216 163 188 182 172 173 174 193 196 196 211 220 207 184 213 235 259 280 283 292 289 281 280 280 280 277 268 264 266 266 260 253 256 261 253 251 252 258
233 224 242 236 238 239 229 227 199 196 199 192 178 181 210 208 185 200 217 222 249 272 278 299 289 252 270 286 284 280 272 265 264 265 269 269 260 256 255 263 263 256 257 260
237 226 246 241 240 232 188 201 209 203 201 196 186 191 203 206 201 210 222 234 243 274 294 302 301 288 273 278 283 287 268 264 262 264 269 268 260 259 257 263 265 264 265 268
227 215 232 248 234 235 212 192 210 193 187 182 193 194 204 197 205 216 230 246 273 298 306 306 306 299 289 277 278 286 267 260 264 265 271 269 262 262 260 264 268 273 275 274
226 220 221 229 222 240 204 189 203 190 188 191 195 197 203 200 208 222 231 263 294 304 306 309 306 299 296 291 287 278 267 263 263 266 271 271 266 266 256 258 264 268 274 282
Height
3159 3160 3156 3153 3156 3158 3155 3157 3156 3157 3159 3157 3156 3153 3156 3162 3165 3167 3171 3174 3176 3180 3180 3180 3183 3183 3183 3184 3184 3185 3187 3190 3192 3195 3196 3197 3200 3201 3204 3206 3208 3209 3211 3211
3159 3157 3155 3154 3159 3157 3155 3158 3157 3160 3158 3157 3158 3155 3157 3160 3164 3167 3170 3171 3173 3176 3176 3178 3179 3181 3184 3184 3184 3185 3186 3189 3192 3193 3195 3196 3199 3202 3204 3206 3207 3209 3209 3212
3154 3154 3154 3155 3156 3157 3156 3153 3155 3158 3156 3159 3152 3160 3154 3160 3163 3162 3167 3166 3169 3167 3167 3176 3179 3182 3183 3182 3184 3186 3187 3189 3192 3193 3189 3196 3196 3201 3203 3205 3207 3208 3209 3213
3153 3152 3153 3154 3155 3155 3152 3153 3154 3153 3154 3154 3153 3150 3151 3154 3154 3157 3160 3162 3163 3164 3165 3168 3169 3180 3183 3182 3185 3185 3187 3189 3192 3194 3195 3196 3198 3200 3202 3205 3206 3206 3208 3213
3151 3151 3151 3152 3152 3153 3152 3153 3153 3152 3150 3151 3148 3150 3148 3148 3152 3158 3159 3158 3159 3161 3164 3160 3171 3170 3183 3180 3182 3184 3186 3187 3190 3192 3195 3196 3195 3197 3200 3201 3204 3205 3206 3212
3147 3148 3149 3150 3150 3151 3151 3151 3151 3149 3147 3144 3146 3142 3150 3149 3152 3149 3159 3156 3158 3159 3159 3165 3171 3159 3164 3175 3179 3181 3184 3186 3188 3191 3194 3195 3195 3192 3198 3200 3203 3204 3206 3211
3147 3146 3147 3148 3149 3150 3151 3149 3152 3151 3145 3142 3142 3139 3144 3146 3148 3140 3149 3154 3153 3154 3160 3162 3162 3161 3169 3177 3176 3177 3182 3184 3185 3187 3192 3194 3195 3197 3198 3200 3203 3204 3205 3208
3140 3142 3144 3145 3146 3147 3148 3146 3155 3164 3157 3148 3141 3138 3143 3143 3147 3149 3151 3151 3153 3154 3159 3163 3160 3165 3170 3175 3176 3177 3179 3180 3182 3183 3187 3191 3193 3197 3198 3200 3201 3201 3201 3201
3136 3133 3137 3142 3144 3147 3144 3144 3143 3145 3142 3146 3144 3140 3143 3145 3146 3145 3146 3146 3147 3150 3156 3160 3165 3163 3166 3167 3170 3171 3172 3174 3177 3179 3182 3186 3190 3195 3198 3200 3201 3197 3198 3193
3135 3135 3137 3140 3143 3144 3144 3144 3141 3136 3132 3132 3137 3142 3145 3147 3147 3148 3148 3145 3147 3153 3155 3158 3161 3166 3163 3162 3165 3170 3171 3171 3173 3175 3177 3181 3186 3191 3194 3197 3199 3196 3193 3197
3134 3133 3138 3138 3139 3141 3142 3142 3140 3136 3136 3143 3151 3148 3146 3146 3149 3149 3148 3141 3138 3155 3156 3157 3160 3164 3163 3163 3169 3170 3171 3173 3172 3174 3176 3177 3181 3185 3189 3192 3193 3193 3191 3197
3134 3132 3133 3134 3135 3137 3137 3137 3137 3135 3137 3135 3138 3141 3144 3146 3148 3149 3150 3151 3154 3156 3155 3156 3158 3159 3160 3163 3168 3165 3149 3160 3170 3172 3171 3173 3176 3180 3185 3188 3191 3190 3189 3190
3131 3131 3131 3136 3131 3133 3134 3135 3136 3136 3137 3137 3137 3141 3142 3146 3148 3150 3148 3149 3151 3153 3155 3156 3156 3157 3157 3160 3162 3160 3160 3151 3141 3171 3167 3170 3172 3175 3179 3184 3187 3189 3190 3189
3127 3128 3127 3126 3131 3131 3131 3133 3134 3134 3132 3133 3139 3140 3142 3145 3147 3150 3150 3150 3151 3154 3155 3156 3156 3156 3155 3155 3157 3160 3156 3152 3155 3158 3164 3169 3173 3175 3176 3178 3181 3185 3189 3190
3126 3126 3126 3126 3130 3130 3130 3129 3131 3133 3133 3134 3137 3140 3143 3145 3148 3149 3150 3150 3151 3153 3154 3156 3156 3155 3154 3153 3152 3151 3153 3153 3154 3157 3158 3166 3166 3171 3176 3176 3179 3182 3185 3187
3123 3124 3124 3124 3124 3128 3131 3128 3130 3132 3133 3134 3136 3137 3139 3144 3146 3147 3149 3150 3150 3153 3154 3154 3153 3153 3152 3151 3149 3148 3147 3151 3156 3155 3149 3146 3158 3162 3169 3174 3174 3177 3181 3184
3118 3120 3122 3121 3123 3127 3127 3125 3127 3129 3131 3133 3136 3137 3139 3141 3143 3145 3145 3147 3149 3151 3153 3151 3150 3151 3150 3148 3146 3145 3143 3148 3153 3137 3147 3114 3147 3161 3166 3167 3167 3171 3175 3178
3113 3116 3118 3118 3119 3118 3120 3121 3123 3125 3128 3131 3134 3137 3137 3138 3139 3141 3143 3145 3146 3148 3149 3150 3150 3147 3146 3143 3143 3141 3139 3138 3142 3147 3143 3144 3151 3158 3160 3159 3161 3166 3169 3171
3108 3113 3114 3114 3114 3117 3117 3120 3121 3123 3127 3130 3132 3134 3135 3136 3137 3140 3142 3142 3144 3144 3145 3146 3146 3145 3145 3143 3140 3138 3138 3137 3136 3137 3139 3143 3149 3151 3153 3154 3158 3161 3163 3165
3107 3109 3108 3110 3110 3119 3115 3116 3116 3119 3123 3126 3128 3130 3133 3132 3136 3138 3138 3140 3142 3143 3142 3143 3142 3141 3141 3140 3137 3135 3134 3133 3134 3135 3137 3138 3142 3145 3146 3149 3153 3156 3157 3159
3102 3106 3109 3108 3109 3109 3110 3111 3119 3122 3124 3121 3125 3128 3129 3130 3133 3133 3135 3137 3138 3139 3139 3138 3137 3137 3136 3134 3131 3129 3128 3128 3127 3128 3129 3132 3134 3137 3140 3144 3146 3148 3150 3151
3095 3099 3100 3106 3104 3105 3108 3111 3116 3116 3118 3120 3123 3126 3126 3127 3130 3132 3135 3136 3137 3136 3136 3135 3133 3130 3129 3129 3126 3124 3124 3123 3122 3123 3125 3127 3129 3131 3134 3136 3139 3140 3141 3143
3088 3086 3096 3099 3101 3103 3105 3108 3110 3114 3117 3118 3121 3125 3124 3127 3130 3133 3133 3133 3133 3131 3130 3129 3128 3127 3125 3123 3121 3119 3119 3119 3119 3120 3121 3122 3123 3125 3128 3130 3131 3132 3133 3134
3084 3089 3087 3093 3096 3098 3100 3104 3108 3109 3115 3115 3118 3122 3124 3126 3127 3129 3130 3130 3128 3127 3126 3124 3123 3121 3120 3118 3115 3114 3115 3115 3116 3116 3117 3117 3117 3119 3121 3123 3124 3124 3124 3124
3078 3085 3087 3085 3090 3094 3094 3103 3106 3108 3111 3113 3116 3119 3121 3123 3125 3126 3125 3125 3124 3123 3121 3119 3117 3115 3114 3112 3110 3109 3110 3110 3111 3111 3112 3111 3112 3112 3114 3116 3117 3117 3117 3116
3076 3081 3081 3079 3084 3088 3090 3093 3104 3106 3107 3111 3114 3116 3117 3120 3122 3121 3121 3120 3120 3118 3116 3114 3111 3109 3107 3105 3104 3104 3104 3105 3106 3106 3106 3106 3106 3106 3108 3109 3111 3111 3112 3110